Change the Weather History Date:

Friday, October 26, 2012

  Actual Average Record
Temperature  
Mean Temperature 75 °F -  
Max Temperature 78 °F 75 °F 90 °F (2010)
Min Temperature 73 °F 62 °F 43 °F (2005)
Cooling Degree Days 10    
Growing Degree Days 25 (Base 50)    
Moisture  
Dew Point 64 °F    
Average Humidity 68    
Maximum Humidity 78    
Minimum Humidity 59    
Precipitation  
Precipitation 0.00 in - - ()
Sea Level Pressure  
Sea Level Pressure 29.79 in    
Wind  
Wind Speed 19 mph (NNE)    
Max Wind Speed 26 mph    
Max Gust Speed 38 mph    
Visibility 9 miles    
Events Rain    
Averages and records for this station are not official NWS values.
T = Trace of Precipitation, MM = Missing Value Source: NWS Daily Summary

Daily Weather History Graph

Daily Weather History Graph

Search for Another Location

Airport or City:

Trip Planner

Search our weather history database for the weather conditions in past years. The results will help you decide how hot, cold, wet, or windy it might be!

Date:

Astronomy

Oct. 26, 2012 Rise Set
Actual Time 7:35 AM EDT 6:42 PM EDT
Civil Twilight 7:11 AM EDT 7:07 PM EDT
Nautical Twilight 6:43 AM EDT 7:35 PM EDT
Astronomical Twilight 6:15 AM EDT 8:03 PM EDT
Moon 4:49 PM EDT (10/26) 4:41 AM EDT (10/26)
Length of Visible Light 11h 56m
Length of Day
11h 06m
Waxing Gibbous, 91% of the Moon is Illuminated
Oct 26
Waxing Gibbous
Oct 29
Full
Nov 6
Last Quarter
Nov 13
New
Nov 20
First Quarter

Hourly Weather History & Observations

Time (EDT) Temp. Dew Point Humidity Pressure Visibility Wind Dir Wind Speed Gust Speed Precip Events Conditions
12:52 AM 77.0 °F 66.0 °F 69% 29.89 in 10.0 mi ENE 16.1 mph - N/A   Mostly Cloudy
1:52 AM 77.0 °F 66.0 °F 69% 29.87 in 10.0 mi ENE 15.0 mph - N/A   Mostly Cloudy
2:52 AM 77.0 °F 66.0 °F 69% 29.86 in 10.0 mi ENE 16.1 mph - N/A   Mostly Cloudy
3:52 AM 77.0 °F 66.0 °F 69% 29.84 in 10.0 mi ENE 17.3 mph - N/A   Overcast
4:52 AM 77.0 °F 66.0 °F 69% 29.83 in 10.0 mi NE 17.3 mph - N/A   Overcast
5:52 AM 77.0 °F 64.9 °F 66% 29.83 in 10.0 mi NE 17.3 mph - N/A   Overcast
6:52 AM 77.0 °F 64.9 °F 66% 29.82 in 9.0 mi NE 19.6 mph 28.8 mph N/A   Overcast
6:59 AM 77.0 °F 64.4 °F 65% 29.82 in 8.0 mi NE 16.1 mph 28.8 mph N/A   Mostly Cloudy
7:52 AM 77.0 °F 66.0 °F 69% 29.82 in 8.0 mi NE 18.4 mph 26.5 mph N/A   Mostly Cloudy
8:52 AM 77.0 °F 66.0 °F 69% 29.84 in 7.0 mi NE 17.3 mph 25.3 mph N/A   Overcast
9:42 AM 75.2 °F 68.0 °F 78% 29.85 in 6.0 mi NNE 16.1 mph 25.3 mph N/A   Haze
9:52 AM 75.9 °F 68.0 °F 76% 29.85 in 6.0 mi NNE 19.6 mph 27.6 mph N/A   Haze
10:29 AM 77.0 °F 68.0 °F 74% 29.84 in 7.0 mi NNE 20.7 mph 31.1 mph N/A   Overcast
10:52 AM 77.0 °F 68.0 °F 74% 29.84 in 7.0 mi NNE 19.6 mph 31.1 mph N/A   Overcast
11:52 AM 75.9 °F 66.9 °F 74% 29.83 in 8.0 mi NNE 20.7 mph 28.8 mph N/A   Overcast
12:09 PM 75.2 °F 66.2 °F 73% 29.84 in 9.0 mi NNE 23.0 mph 33.4 mph N/A   Overcast
12:52 PM 75.9 °F 66.0 °F 71% 29.82 in 7.0 mi NNE 19.6 mph 32.2 mph N/A   Overcast
1:43 PM 75.2 °F 64.4 °F 69% 29.80 in 7.0 mi NNE 20.7 mph 32.2 mph 0.00 in Rain Light Rain
1:52 PM 73.9 °F 64.9 °F 73% 29.79 in 7.0 mi NNE 23.0 mph 32.2 mph 0.00 in Rain Light Rain
2:08 PM 75.2 °F 64.4 °F 69% 29.79 in 10.0 mi NNE 23.0 mph 33.4 mph 0.00 in   Overcast
2:52 PM 75.0 °F 64.0 °F 69% 29.77 in 10.0 mi NNE 23.0 mph 35.7 mph 0.00 in   Overcast
3:52 PM 75.0 °F 64.0 °F 69% 29.75 in 9.0 mi NNE 21.9 mph 38.0 mph N/A   Overcast
4:33 PM 75.2 °F 64.4 °F 69% 29.74 in 10.0 mi NNE 25.3 mph 35.7 mph N/A   Overcast
4:52 PM 75.9 °F 64.0 °F 67% 29.74 in 10.0 mi NNE 26.5 mph 36.8 mph N/A   Overcast
5:52 PM 75.9 °F 63.0 °F 64% 29.73 in 10.0 mi NNE 20.7 mph 36.8 mph N/A   Overcast
6:26 PM 75.2 °F 62.6 °F 65% 29.73 in 9.0 mi NNE 20.7 mph 34.5 mph 0.00 in Rain Light Rain
6:33 PM 75.2 °F 62.6 °F 65% 29.74 in 10.0 mi NNE 23.0 mph 35.7 mph 0.00 in   Overcast
6:44 PM 75.2 °F 62.6 °F 65% 29.73 in 10.0 mi NNE 19.6 mph 31.1 mph 0.00 in   Overcast
6:52 PM 75.9 °F 62.1 °F 62% 29.73 in 10.0 mi NNE 20.7 mph 33.4 mph 0.00 in   Overcast
7:52 PM 75.0 °F 60.1 °F 60% 29.73 in 10.0 mi North 12.7 mph 28.8 mph N/A   Mostly Cloudy
8:52 PM 73.9 °F 59.0 °F 59% 29.73 in 10.0 mi North 21.9 mph 34.5 mph N/A   Mostly Cloudy
9:52 PM 73.9 °F 59.0 °F 59% 29.73 in 10.0 mi North 19.6 mph 32.2 mph N/A   Clear
10:52 PM 73.9 °F 61.0 °F 64% 29.72 in 10.0 mi NNE 23.0 mph 35.7 mph N/A   Overcast
11:25 PM 73.4 °F 60.8 °F 65% 29.71 in 10.0 mi North 17.3 mph 29.9 mph N/A   Mostly Cloudy
11:34 PM 73.4 °F 60.8 °F 65% 29.70 in 10.0 mi North 20.7 mph 32.2 mph N/A   Mostly Cloudy
11:52 PM 73.0 °F 61.0 °F 66% 29.70 in 10.0 mi North 25.3 mph 34.5 mph N/A   Overcast